Location: Unspecified
(38.9820°N, 94.4650°W)
Time: 10:59:13
(UTC-05:00)

Okean 3 - Visible Passes

Search period start: 29 July 2016 00:00
Search period end: 08 August 2016 00:00
Orbit: 579 x 602 km, 82.5° (Epoch: 27 July)

Date Brightness Start Highest point End Pass type
(mag) Time Alt. Az. Time Alt. Az. Time Alt. Az.
29 Jul 3.5 21:42:32 10° N 21:46:48 66° E 21:49:58 17° SSE visible
30 Jul 3.5 21:51:00 10° N 21:55:17 79° W 21:58:46 15° S visible
31 Jul 4.3 21:59:35 10° NNW 22:03:43 49° W 22:07:38 11° SSW visible
01 Aug 5.1 22:08:20 10° NNW 22:12:07 32° W 22:15:51 10° SSW visible
02 Aug 5.8 22:17:16 10° NW 22:20:28 21° W 22:23:38 10° SW visible
03 Aug 6.3 22:26:37 10° NW 22:28:47 14° W 22:30:56 10° WSW visible
04 Aug 3.5 20:56:14 10° N 21:00:28 66° E 21:04:39 10° SSE visible
05 Aug 3.6 21:04:41 10° N 21:08:56 79° W 21:13:08 10° S visible
06 Aug 4.4 21:13:17 10° NNW 21:17:23 49° W 21:21:26 10° SSW visible
07 Aug 5.3 21:22:01 10° NNW 21:25:46 31° W 21:29:30 10° SSW visible
